Back to catalog

FENGYUN 1C DEB

AliveSSO
NORAD 38818·DEBRIS·🇨🇳 China

Launched May 10, 1999 from Taiyuan Satellite Launch Center

Loading…

Next Passes (next 24 hours)

TLE

AgingSource: Space-Track

Epoch: Sep 8, 2026, 09:17 UTC

1 38818U 99025EVJ 26251.38704954  .00000663  00000-0  21428-3 0  9994
2 38818  98.2662 303.7920 0086589   7.9916  53.3926 14.40119641711283

Track FENGYUN 1C DEB in real time with AllMySat

Download on the App Store